Weather in Bronytska Huta

Ukraine / Zhytomyr Region     50°55′52″N   27°18′50″E
temp.,
°C
wind,
m/s
gust,
m/s
humid.,
%
clouds,
%
prec.,
mm/h
press.,
hPa
HPBL,
m
1 march, mon
mon123:00+3nnw41097100 1.3 1023645
02:00+2n4891100 1.8 1025668
05:00+2n3893100 0.1 1027536
08:00+1n379595 0.1 1029472
11:00+3nne247690 0.1 1032786
14:00+4nnw247092 0.1 1032875
17:00+4wnw2577100 0.0 1032325
20:00+1wnw239370 0.0 103266
2 march, tue
tue223:000w389563 0.0 1031210
02:00+1w4119447 0.0 1031296
05:00+1w5129467 0.0 1028426
08:00+1w5139263 0.0 1028516
11:00+5wnw6117681 0.0 1026669
14:00+8wnw6116544 0.0 1025948
17:00+6nw512710 0.0 1024922
20:00+4nw414830 0.0 1026737
3 march, wed
wed323:00+2nw312910 0.0 1028574
02:000nw310920 0.0 1029362
05:00−1nw38940 0.0 1029247
08:00−1nw37850 0.0 1030294
11:00+4nw366146 0.0 1030559
14:00+6wnw465223 0.0 1028802
17:00+4wnw24652 0.0 1027127
20:00+1wsw12781 0.0 102622
4 march, thu
thu423:000sw238430 0.0 102458
02:000sw369215 0.0 1022144
05:00+1sw39930 0.0 1018255
08:00+2sw512875 0.0 1016376
11:00+7wsw6126885 0.0 1013718
14:00+9wsw6116489 0.0 10111078
17:00+7w3117394 0.0 1009702
20:00+6w3118697 0.1 1010584
5 march, fri
fri523:00+3w229489 0.0 100952
02:00+3w129595 0.4 100853
05:00+4s2399100 1.8 1007115
08:00+4wsw2599100 2.7 1006206
11:00+4n2498100 1.4 1006215
14:00+2nw4896100 3.2 1007442
17:000nnw5986100 0.3 1011794
20:00−1n497899 0.4 1014845